Location: Unspecified
(0.0000°N, 0.0000°E)
Time: 02:48:00
(UTC+00:00)

GONETS D1M 1 - Pass Details

Date: 20 May 2026
Orbit: 1435 x 1448 km, 82.5° (Epoch: 9 June)

Event Time Altitude Azimuth Distance (km) Brightness Sun altitude
Rises 04:57:19 0° 168° (SSE) 4,536 9.2 -13.9°
Reaches altitude 10° 05:00:23 10° 161° (SSE) 3,558 8.7 -13.2°
Maximum altitude 05:08:17 43° 93° (E) 1,944 7.9 -11.3°
Drops below altitude 10° 05:16:09 10° 25° (NNE) 3,554 9.4 -9.5°
Sets 05:19:11 0° 19° (NNE) 4,530 9.9 -8.8°
